Location: Napa Soda Springs
(38.3907°N, 122.2794°W)
Time: 21:32:22
(UTC+00:00)

ATLAS 3B R/B - Pass Details

Date: 29 October 2020
Orbit: 1014 x 1181 km, 63.8° (Epoch: 23 November)

Event Time Altitude Azimuth Distance (km) Brightness Sun altitude
Exits shadow 12:44:57 39° 260° (W) 1,467 2.9 -21.7°
Maximum altitude 12:46:55 52° 308° (NW) 1,247 2.7 -21.3°
Drops below altitude 10° 12:53:22 10° 24° (NNE) 2,833 5.2 -20.0°
Sets 12:56:07 0° 29° (NNE) 3,806 6.0 -19.5°
